1520287200.13,9849,10.25,71990.3,-7.31,-8.81,-8.71,0,*66
1520287201.34,9850,10.25,71986.5,-7.31,-8.59,-8.59,0,*61
1520287202.56,9851,10.25,71992.8,-7.31,-8.67,-8.71,0,*67
1520287203.77,9852,10.25,71994.8,-7.31,-8.67,-8.59,0,*6E
1520287204.97,9853,10.25,71998.3,-7.31,-8.67,-8.55,0,*63
1520287206.19,9854,10.25,71996.0,-7.31,-8.71,-8.59,0,*6F
1520287207.41,9855,10.25,71996.3,-7.31,-8.71,-8.59,0,*6E
1520287208.63,9856,10.25,71992.8,-7.31,-8.71,-8.59,0,*6D
1520287209.84,9857,10.25,71994.8,-7.31,-8.59,-8.55,0,*6A
1520287211.04,9858,10.25,71994.5,-7.31,-8.59,-8.55,0,*65
1520287212.25,9859,10.25,71994.8,-7.31,-8.67,-8.59,0,*65
1520287213.47,9860,10.25,71992.0,-7.31,-8.55,-8.55,0,*62
1520287214.67,9861,10.25,71994.8,-7.31,-8.59,-8.55,0,*6F
1520287215.86,9862,10.25,71990.0,-7.33,-8.67,-8.55,0,*63
1520287217.07,9863,10.25,71984.5,-7.31,-8.59,-8.67,0,*6C
1520287218.28,9864,10.25,71988.3,-7.31,-8.67,-8.71,0,*61
1520287219.51,9865,10.25,71986.8,-7.31,-8.81,-8.71,0,*68
1520287220.73,9866,10.25,71982.3,-7.31,-8.71,-8.71,0,*64
1520287221.97,9867,10.25,71982.5,-7.31,-8.81,-8.71,0,*6A
1520287223.23,9868,10.25,71984.3,-7.31,-8.81,-8.81,0,*6A
1520287224.48,9869,10.25,71978.0,-7.31,-8.81,-8.81,0,*6B
1520287225.69,9870,10.25,71982.3,-7.31,-8.59,-8.67,0,*6E
1520287226.9,9871,10.25,71976.3,-7.31,-8.59,-8.59,0,*62
1520287228.09,9872,10.25,71978.0,-7.33,-8.71,-8.67,0,*64
1520287229.28,9873,10.25,71976.8,-7.33,-8.67,-8.67,0,*62
1520287230.46,9874,10.25,71982.8,-7.33,-8.67,-8.67,0,*65
1520287231.65,9875,10.25,71982.0,-7.33,-8.59,-8.59,0,*64
1520287232.84,9876,10.25,71976.0,-7.33,-8.59,-8.59,0,*67
1520287234.02,9877,10.25,71976.3,-7.33,-8.67,-8.67,0,*66
1520287235.21,9878,10.25,71982.0,-7.33,-8.59,-8.59,0,*69
1520287236.4,9879,10.25,71980.5,-7.33,-8.59,-8.59,0,*68
1520287237.59,9880,10.25,71978.3,-7.33,-8.71,-8.71,0,*6E
1520287238.78,9881,10.25,71980.5,-7.33,-8.59,-8.67,0,*62
1520287239.96,9882,10.25,71978.5,-7.33,-8.59,-8.59,0,*6C
1520287241.15,9883,10.25,71982.5,-7.33,-8.59,-8.59,0,*6D
1520287242.34,9884,10.25,71976.3,-7.33,-8.67,-8.55,0,*6B
1520287243.53,9885,10.25,71980.8,-7.33,-8.67,-8.59,0,*66
1520287244.74,9886,10.25,71978.5,-7.35,-8.63,-8.63,0,*6E
1520287245.97,9887,10.25,71980.0,-7.35,-8.71,-8.63,0,*6C
1520287247.18,9888,10.25,71976.0,-7.35,-8.63,-8.63,0,*60
1520287248.4,9889,10.25,71980.0,-7.35,-8.71,-8.59,0,*6B
1520287249.59,9890,10.25,71978.8,-7.33,-8.67,-8.59,0,*62
1520287250.78,9891,10.25,71982.3,-7.33,-8.71,-8.67,0,*69
1520287251.97,9892,10.25,71974.3,-7.33,-8.71,-8.67,0,*6A
1520287253.19,9893,10.25,71974.0,-7.35,-8.63,-8.63,0,*6A
1520287254.41,9894,10.25,71976.3,-7.35,-8.71,-8.63,0,*6E
1520287255.64,9895,10.25,71972.3,-7.35,-8.71,-8.71,0,*6C
1520287256.85,9896,10.25,71972.5,-7.35,-8.63,-8.63,0,*6F
1520287258.1,9897,10.25,71974.3,-7.35,-8.59,-8.51,0,*66
1520287259.29,9898,10.25,71986.3,-7.33,-8.55,-8.45,0,*66
1520287260.51,9899,10.25,71978.0,-7.35,-8.59,-8.45,0,*6D
1520287261.7,9900,10.25,71978.8,-7.33,-8.67,-8.55,0,*66
1520287262.92,9901,10.25,71968.5,-7.35,-8.63,-8.59,0,*69
1520287264.13,9902,10.25,71968.0,-7.35,-8.59,-8.59,0,*63
1520287265.35,9903,10.25,71956.5,-7.35,-8.71,-8.59,0,*68
1520287266.58,9904,10.25,71960.5,-7.35,-8.71,-8.63,0,*66
1520287267.8,9905,10.25,71960.5,-7.35,-8.71,-8.71,0,*64
1520287268.99,9906,10.25,71964.5,-7.33,-8.75,-8.63,0,*66
1520287270.2,9907,10.25,71968.5,-7.35,-8.63,-8.63,0,*66
1520287271.45,9908,10.25,71970.0,-7.35,-8.59,-8.51,0,*61
1520287272.66,9909,10.25,71976.8,-7.35,-8.59,-8.59,0,*68
1520287273.91,9910,10.25,71968.0,-7.35,-8.59,-8.51,0,*68
1520287275.09,9911,10.25,71970.8,-7.33,-8.59,-8.55,0,*6B
1520287276.29,9912,10.25,71970.8,-7.33,-8.59,-8.45,0,*69
1520287277.53,9913,10.25,71970.8,-7.35,-8.63,-8.51,0,*62
1520287278.75,9914,10.25,71968.5,-7.35,-8.59,-8.59,0,*64
1520287280.0,9915,10.25,71974.0,-7.35,-8.71,-8.51,0,*67
1520287281.18,9916,10.25,71980.3,-7.33,-8.67,-8.59,0,*6D
1520287282.41,9917,10.25,71974.5,-7.35,-8.85,-8.71,0,*6C
1520287283.62,9918,10.25,71972.5,-7.35,-8.75,-8.63,0,*6F
1520287284.85,9919,10.25,71970.8,-7.35,-8.71,-8.63,0,*6A
1520287286.03,9920,10.25,71976.5,-7.33,-8.59,-8.55,0,*69
1520287287.28,9921,10.25,71976.8,-7.35,-8.59,-8.51,0,*6A
1520287288.5,9922,10.25,71982.0,-7.35,-8.71,-8.63,0,*62
1520287289.72,9923,10.25,71984.8,-7.33,-8.51,-8.45,0,*63
1520287290.99,9924,10.25,71986.8,-7.35,-8.51,-8.51,0,*67
1520287292.21,9925,10.25,71982.5,-7.35,-8.63,-8.59,0,*6F
1520287293.45,9926,10.25,71986.0,-7.35,-8.59,-8.51,0,*6D
1520287294.64,9927,10.25,71984.5,-7.33,-8.59,-8.55,0,*6E
1520287295.82,9928,10.25,71984.5,-7.33,-8.59,-8.55,0,*61
1520287297.01,9929,10.25,71984.3,-7.33,-8.67,-8.55,0,*6D
1520287298.23,9930,10.25,71982.8,-7.35,-8.63,-8.71,0,*61
1520287299.45,9931,10.25,71980.0,-7.35,-8.63,-8.63,0,*63
1520287300.69,9932,10.25,71984.5,-7.35,-8.63,-8.51,0,*61
1520287301.91,9933,10.25,71982.5,-7.35,-8.63,-8.59,0,*68
1520287303.13,9934,10.25,71986.5,-7.35,-8.63,-8.63,0,*66
1520287304.34,9935,10.25,71980.8,-7.35,-8.63,-8.59,0,*6E
1520287305.57,9936,10.25,71976.0,-7.35,-8.71,-8.59,0,*6E
1520287306.78,9937,10.25,71980.8,-7.35,-8.63,-8.63,0,*65
1520287308.01,9938,10.25,71976.5,-7.35,-8.71,-8.71,0,*6A
1520287309.23,9939,10.25,71976.3,-7.35,-8.71,-8.63,0,*68
1520287310.44,9940,10.25,71978.5,-7.35,-8.75,-8.71,0,*61
1520287311.66,9941,10.25,71972.0,-7.35,-8.75,-8.71,0,*60
1520287312.88,9942,10.25,71970.8,-7.35,-8.71,-8.63,0,*64
1520287314.1,9943,10.25,71972.0,-7.35,-8.71,-8.63,0,*65
1520287315.33,9944,10.25,71974.0,-7.35,-8.71,-8.63,0,*62
1520287316.54,9945,10.25,71968.5,-7.35,-8.63,-8.71,0,*63
1520287317.76,9946,10.25,71970.8,-7.35,-8.71,-8.63,0,*60
1520287318.95,9947,10.25,71970.0,-7.37,-8.75,-8.63,0,*67
1520287320.15,9948,10.25,71970.8,-7.37,-8.71,-8.63,0,*6C
1520287321.34,9949,10.25,71972.5,-7.37,-8.71,-8.63,0,*6D
1520287322.53,9950,10.25,71976.0,-7.37,-8.63,-8.63,0,*66
1520287323.75,9951,10.25,71974.8,-7.39,-8.63,-8.71,0,*6A
1520287324.97,9952,10.25,71974.5,-7.37,-8.59,-8.51,0,*6C
1520287326.15,9953,10.25,71978.8,-7.37,-8.59,-8.59,0,*65
1520287327.34,9954,10.25,71976.0,-7.37,-8.59,-8.59,0,*62
1520287328.56,9955,10.25,71974.0,-7.37,-8.59,-8.51,0,*6B
1520287329.75,9956,10.25,71972.3,-7.37,-8.71,-8.59,0,*6A
1520287330.95,9957,10.25,71970.8,-7.37,-8.71,-8.63,0,*62
1520287332.13,9958,10.25,71960.8,-7.37,-8.59,-8.59,0,*6E
1520287333.33,9959,10.25,71970.0,-7.37,-8.71,-8.59,0,*65
1520287334.54,9960,10.25,71968.8,-7.37,-8.59,-8.51,0,*6D
1520287335.73,9961,10.25,71974.8,-7.37,-8.63,-8.59,0,*6D
1520287336.92,9962,10.25,71974.5,-7.37,-8.59,-8.63,0,*6E
1520287338.11,9963,10.25,71980.3,-7.37,-8.63,-8.71,0,*65
1520287339.33,9964,10.25,71974.0,-7.39,-8.63,-8.59,0,*66
1520287340.58,9965,10.25,71976.8,-7.37,-8.51,-8.51,0,*60
1520287341.82,9966,10.25,71980.3,-7.37,-8.51,-8.51,0,*63
1520287343.04,9967,10.25,71982.8,-7.37,-8.51,-8.45,0,*67
1520287344.24,9968,10.25,71982.3,-7.37,-8.45,-8.37,0,*68
1520287345.49,9969,10.25,71986.0,-7.37,-8.51,-8.51,0,*6C
1520287346.73,9970,10.25,71980.5,-7.39,-8.59,-8.51,0,*62
1520287347.97,9971,10.25,71976.3,-7.37,-8.51,-8.51,0,*65
1520287349.22,9972,10.25,71980.0,-7.37,-8.51,-8.51,0,*66
1520287350.44,9973,10.25,71980.3,-7.37,-8.51,-8.45,0,*62
1520287351.71,9974,10.25,71984.8,-7.39,-8.51,-8.51,0,*6E
1520287352.94,9975,10.25,71986.0,-7.37,-8.51,-8.45,0,*64
1520287354.13,9976,10.25,71988.0,-7.37,-8.59,-8.45,0,*6F
1520287355.32,9977,10.25,71984.8,-7.37,-8.59,-8.63,0,*6A
1520287356.53,9978,10.25,71988.0,-7.37,-8.59,-8.51,0,*64
1520287357.75,9979,10.25,71982.8,-7.39,-8.63,-8.59,0,*6A
1520287358.94,9980,10.25,71988.8,-7.37,-8.63,-8.63,0,*6B
1520287360.13,9981,10.25,71984.5,-7.37,-8.63,-8.63,0,*6A
1520287361.32,9982,10.25,71986.0,-7.37,-8.71,-8.63,0,*6A
1520287362.51,9983,10.25,71984.0,-7.37,-8.59,-8.63,0,*61
1520287363.73,9984,10.25,71986.5,-7.39,-8.71,-8.63,0,*62
1520287364.93,9985,10.25,71986.3,-7.37,-8.71,-8.59,0,*64
1520287366.14,9986,10.25,71984.8,-7.37,-8.59,-8.51,0,*65
1520287367.33,9987,10.25,71986.0,-7.37,-8.63,-8.59,0,*65
1520287368.58,9988,10.25,71990.8,-7.39,-8.51,-8.59,0,*65
1520287369.82,9989,10.25,71986.5,-7.39,-8.59,-8.51,0,*64
1520287371.03,9990,10.25,71984.8,-7.39,-8.59,-8.59,0,*64
1520287372.25,9991,10.25,71990.8,-7.39,-8.59,-8.45,0,*68
1520287373.48,9992,10.25,71990.5,-7.39,-8.45,-8.37,0,*63
1520287374.7,9993,10.25,71988.0,-7.37,-8.59,-8.51,0,*61
1520287375.97,9994,10.25,71992.3,-7.39,-8.51,-8.51,0,*60
1520287377.19,9995,10.25,71984.8,-7.39,-8.63,-8.59,0,*68
1520287378.4,9996,10.25,71984.0,-7.39,-8.63,-8.59,0,*6B
1520287379.62,9997,10.25,71980.8,-7.37,-8.59,-8.51,0,*65
1520287380.81,9998,10.25,71982.3,-7.37,-8.63,-8.59,0,*6B
1520287382.08,9999,10.25,71986.5,-7.39,-8.51,-8.51,0,*6D
1520287383.3,10000,10.25,71990.0,-7.39,-8.59,-8.59,0,*5C
1520287384.58,10001,10.25,71986.5,-7.39,-8.51,-8.51,0,*5D
1520287385.83,10002,10.25,71984.5,-7.37,-8.51,-8.51,0,*50
1520287387.06,10003,10.25,71990.0,-7.39,-8.45,-8.45,0,*5F
1520287388.26,10004,10.25,71994.5,-7.37,-8.37,-8.37,0,*56
1520287389.47,10005,10.25,71994.3,-7.37,-8.37,-8.37,0,*57
1520287390.67,10006,10.25,71984.3,-7.37,-8.37,-8.45,0,*51
1520287391.87,10007,10.25,71984.3,-7.37,-8.37,-8.45,0,*50
1520287393.13,10008,10.25,71988.0,-7.39,-8.51,-8.45,0,*51
1520287394.33,10009,10.25,71988.8,-7.37,-8.45,-8.45,0,*5B
1520287395.56,10010,10.25,71986.5,-7.39,-8.45,-8.45,0,*5D
1520287396.76,10011,10.25,71988.0,-7.37,-8.45,-8.37,0,*57
1520287397.99,10012,10.25,71990.5,-7.39,-8.37,-8.45,0,*5A
1520287399.19,10013,10.25,71984.3,-7.37,-8.37,-8.45,0,*55
1520287400.39,10014,10.25,71982.5,-7.37,-8.37,-8.45,0,*52
1520287401.59,10015,10.25,71980.5,-7.37,-8.45,-8.45,0,*56
1520287402.79,10016,10.25,71982.3,-7.37,-8.45,-8.45,0,*55
1520287404.05,10017,10.25,71980.5,-7.39,-8.45,-8.51,0,*5F
1520287405.27,10018,10.25,71982.8,-7.37,-8.51,-8.59,0,*53
1520287406.49,10019,10.25,71982.5,-7.39,-8.59,-8.59,0,*54
1520287407.71,10020,10.25,71986.5,-7.37,-8.59,-8.51,0,*58
1520287408.99,10021,10.25,71982.3,-7.39,-8.51,-8.51,0,*5F
1520287410.22,10022,10.25,71984.0,-7.39,-8.45,-8.45,0,*5C
1520287411.44,10023,10.25,71988.0,-7.39,-8.45,-8.45,0,*5D
1520287412.65,10024,10.25,71988.3,-7.37,-8.45,-8.37,0,*51
1520287413.88,10025,10.25,71994.0,-7.39,-8.37,-8.45,0,*5E
1520287415.08,10026,10.25,71986.3,-7.37,-8.37,-8.37,0,*56
1520287416.31,10027,10.25,71986.0,-7.39,-8.37,-8.37,0,*59
1520287417.54,10028,10.25,71988.8,-7.39,-8.37,-8.37,0,*56
1520287418.75,10029,10.25,71984.8,-7.37,-8.37,-8.37,0,*59
1520287419.94,10030,10.25,71988.5,-7.37,-8.33,-8.33,0,*51
1520287421.13,10031,10.25,71986.0,-7.37,-8.33,-8.33,0,*50
1520287422.34,10032,10.25,71992.3,-7.39,-8.33,-8.33,0,*5D
1520287423.53,10033,10.25,71990.8,-7.37,-8.33,-8.33,0,*52
1520287424.75,10034,10.25,71990.5,-7.39,-8.37,-8.33,0,*5F
1520287425.95,10035,10.25,71990.8,-7.37,-8.33,-8.37,0,*50
1520287427.13,10036,10.25,71994.8,-7.37,-8.33,-8.33,0,*57
1520287428.32,10037,10.25,71994.0,-7.37,-8.33,-8.25,0,*51
1520287429.51,10038,10.25,71994.5,-7.37,-8.33,-8.33,0,*59
1520287430.7,10039,10.25,71996.3,-7.37,-8.33,-8.33,0,*58
1520287431.91,10040,10.25,71994.0,-7.39,-8.33,-8.33,0,*58
1520287433.14,10041,10.25,71998.0,-7.39,-8.33,-8.37,0,*5D
1520287434.34,10042,10.25,71998.5,-7.37,-8.25,-8.25,0,*54
1520287435.53,10043,10.25,71998.8,-7.37,-8.25,-8.33,0,*52
1520287436.72,10044,10.25,71998.0,-7.37,-8.25,-8.33,0,*55
1520287437.92,10045,10.25,71992.8,-7.37,-8.25,-8.25,0,*53
1520287439.11,10046,10.25,71994.3,-7.37,-8.25,-8.33,0,*57
1520287440.3,10047,10.25,71996.5,-7.37,-8.33,-8.33,0,*51
1520287441.5,10048,10.25,71984.3,-7.37,-8.33,-8.37,0,*5A
1520287442.7,10049,10.31,71988.3,-7.37,-8.45,-8.37,0,*5A
1520287443.93,10050,10.25,71986.8,-7.39,-8.45,-8.45,0,*59
1520287445.16,10051,10.25,71988.3,-7.39,-8.45,-8.45,0,*58
1520287446.36,10052,10.25,71990.0,-7.37,-8.33,-8.37,0,*51
1520287447.56,10053,10.25,71972.0,-7.37,-8.37,-8.45,0,*51
1520287448.76,10054,10.25,71964.0,-7.37,-8.37,-8.45,0,*56
1520287449.96,10055,10.25,71964.3,-7.37,-8.45,-8.45,0,*52
1520287451.18,10056,10.25,71956.5,-7.37,-8.51,-8.59,0,*59
1520287452.38,10057,10.25,71960.3,-7.37,-8.59,-8.59,0,*50
1520287453.57,10058,10.25,71958.8,-7.37,-8.59,-8.59,0,*5F
1520287454.76,10059,10.25,71964.8,-7.37,-8.59,-8.59,0,*5E
1520287456.02,10060,10.25,71968.0,-7.39,-8.45,-8.51,0,*5F
1520287457.21,10061,10.25,71964.3,-7.37,-8.45,-8.59,0,*58
1520287458.44,10062,10.25,71968.0,-7.39,-8.45,-8.45,0,*58
1520287459.63,10063,10.25,71966.8,-7.37,-8.33,-8.33,0,*57
1520287460.82,10064,10.25,71966.0,-7.37,-8.25,-8.33,0,*57
1520287462.01,10065,10.25,71966.8,-7.37,-8.33,-8.33,0,*51
1520287463.23,10066,10.25,71964.8,-7.39,-8.37,-8.45,0,*59
1520287464.46,10067,10.25,71968.0,-7.39,-8.33,-8.37,0,*59
1520287465.65,10068,10.25,71966.0,-7.37,-8.25,-8.33,0,*5B
1520287466.84,10069,10.25,71966.8,-7.37,-8.33,-8.33,0,*5D
1520287468.03,10070,10.25,71964.3,-7.37,-8.33,-8.33,0,*55
1520287469.22,10071,10.25,71968.0,-7.37,-8.25,-8.33,0,*53
1520287470.42,10072,10.25,71974.0,-7.37,-8.25,-8.25,0,*57
1520287471.62,10073,10.25,71972.5,-7.37,-8.25,-8.25,0,*56
1520287472.81,10074,10.25,71966.0,-7.37,-8.25,-8.25,0,*51
1520287474.01,10075,10.25,71970.3,-7.37,-8.25,-8.25,0,*50
1520287475.21,10076,10.25,71972.5,-7.37,-8.25,-8.25,0,*53
1520287476.41,10077,10.25,71976.5,-7.37,-8.25,-8.25,0,*52
1520287477.6,10078,10.25,71974.8,-7.37,-8.25,-8.33,0,*5A
1520287478.82,10079,10.25,71980.0,-7.35,-8.33,-8.25,0,*59
1520287480.01,10080,10.25,71974.0,-7.37,-8.25,-8.25,0,*5A
1520287481.24,10081,10.25,71974.3,-7.35,-8.25,-8.33,0,*5E
1520287482.46,10082,10.25,71976.5,-7.35,-8.25,-8.33,0,*5D
1520287483.68,10083,10.25,71978.0,-7.35,-8.25,-8.25,0,*5B
1520287484.88,10084,10.25,71972.3,-7.33,-8.21,-8.21,0,*5A
1520287486.1,10085,10.25,71972.3,-7.35,-8.25,-8.33,0,*5A
1520287487.33,10086,10.25,71978.5,-7.35,-8.25,-8.25,0,*5E
1520287488.55,10087,10.25,71972.8,-7.35,-8.25,-8.33,0,*58
1520287489.76,10088,10.25,71970.0,-7.35,-8.33,-8.33,0,*50
1520287490.96,10089,10.25,71974.3,-7.33,-8.29,-8.29,0,*57
1520287492.17,10090,10.25,71968.3,-7.35,-8.33,-8.33,0,*59
1520287493.39,10091,10.25,71970.8,-7.35,-8.33,-8.45,0,*59
1520287494.59,10092,10.25,71966.8,-7.33,-8.29,-8.41,0,*53
1520287495.82,10093,10.25,71978.0,-7.35,-8.29,-8.37,0,*55
1520287497.05,10094,10.25,71982.5,-7.35,-8.25,-8.37,0,*5E
1520287498.24,10095,10.25,71976.0,-7.33,-8.29,-8.33,0,*51
1520287499.43,10096,10.25,71978.5,-7.33,-8.29,-8.33,0,*52
1520287500.65,10097,10.25,71982.5,-7.35,-8.33,-8.37,0,*5A
1520287501.85,10098,10.25,71980.5,-7.33,-8.29,-8.33,0,*5C
1520287503.04,10099,10.25,71982.0,-7.33,-8.33,-8.37,0,*52
1520287504.23,10100,10.25,71980.0,-7.33,-8.33,-8.41,0,*52
1520287505.42,10101,10.25,71986.3,-7.33,-8.33,-8.33,0,*56
1520287506.65,10102,10.25,71982.3,-7.35,-8.37,-8.45,0,*56
1520287507.84,10103,10.31,71982.3,-7.33,-8.33,-8.33,0,*54
1520287509.04,10104,10.25,71984.8,-7.33,-8.29,-8.41,0,*5D
1520287510.23,10105,10.25,71982.5,-7.33,-8.33,-8.41,0,*57
1520287511.43,10106,10.25,71982.3,-7.33,-8.41,-8.41,0,*51
1520287512.65,10107,10.25,71986.5,-7.35,-8.45,-8.45,0,*56
1520287513.85,10108,10.25,71984.8,-7.33,-8.29,-8.33,0,*54
1520287515.04,10109,10.25,71984.0,-7.33,-8.21,-8.33,0,*5D
1520287516.26,10110,10.25,71982.5,-7.35,-8.25,-8.33,0,*57
1520287517.45,10111,10.25,71982.8,-7.33,-8.21,-8.29,0,*5F
1520287518.68,10112,10.25,71984.8,-7.35,-8.33,-8.37,0,*56
1520287519.9,10113,10.25,71980.0,-7.35,-8.33,-8.37,0,*57
1520287521.09,10114,10.25,71984.3,-7.33,-8.29,-8.33,0,*59
1520287522.29,10115,10.25,71986.0,-7.33,-8.41,-8.41,0,*53
1520287523.48,10116,10.25,71986.8,-7.33,-8.33,-8.33,0,*50
1520287524.67,10117,10.25,71980.0,-7.33,-8.33,-8.33,0,*51
1520287525.86,10118,10.25,71984.0,-7.33,-8.29,-8.41,0,*50
1520287527.06,10119,10.25,71980.0,-7.33,-8.29,-8.33,0,*54
1520287528.25,10120,10.25,71978.3,-7.33,-8.29,-8.33,0,*5E
1520287529.44,10121,10.25,71974.8,-7.33,-8.29,-8.41,0,*5A
1520287530.63,10122,10.25,71974.8,-7.33,-8.29,-8.33,0,*5C
1520287531.83,10123,10.25,71970.0,-7.33,-8.29,-8.41,0,*58
1520287533.02,10124,10.25,71970.8,-7.33,-8.33,-8.41,0,*54
1520287534.25,10125,10.25,71974.3,-7.35,-8.33,-8.37,0,*52
1520287535.48,10126,10.25,71970.5,-7.35,-8.25,-8.37,0,*56
1520287536.69,10127,10.25,71966.5,-7.35,-8.33,-8.33,0,*54
1520287537.91,10128,10.25,71964.8,-7.31,-8.21,-8.41,0,*59
1520287539.11,10129,10.25,71966.3,-7.33,-8.29,-8.41,0,*52
1520287540.3,10130,10.25,71968.3,-7.33,-8.29,-8.29,0,*54
1520287541.53,10131,10.25,71966.3,-7.35,-8.25,-8.37,0,*50
1520287542.72,10132,10.25,71960.0,-7.33,-8.33,-8.29,0,*5D
1520287543.92,10133,10.25,71962.5,-7.33,-8.29,-8.29,0,*57
1520287545.11,10134,10.25,71970.0,-7.33,-8.21,-8.33,0,*53
1520287546.33,10135,10.25,71966.0,-7.31,-8.29,-8.29,0,*53
1520287547.54,10136,10.25,71968.0,-7.31,-8.29,-8.29,0,*50
1520287548.76,10137,10.25,71970.0,-7.31,-8.29,-8.33,0,*5A
1520287549.97,10138,10.25,71968.8,-7.31,-8.29,-8.33,0,*55
1520287551.19,10139,10.25,71960.5,-7.31,-8.29,-8.33,0,*54
1520287552.4,10140,10.25,71964.8,-7.31,-8.29,-8.33,0,*5A
1520287553.59,10141,10.25,71956.5,-7.29,-8.29,-8.29,0,*59
1520287554.8,10142,10.25,71960.5,-7.31,-8.33,-8.33,0,*53
1520287556.01,10143,10.25,71964.5,-7.31,-8.29,-8.33,0,*59
1520287557.23,10144,10.25,71962.8,-7.31,-8.29,-8.33,0,*5E
1520287558.44,10145,10.31,71964.5,-7.31,-8.33,-8.41,0,*51
1520287559.64,10146,10.31,71968.5,-7.29,-8.25,-8.37,0,*5D
1520287560.85,10147,10.25,71964.8,-7.31,-8.33,-8.41,0,*53
1520287562.07,10148,10.25,71966.3,-7.31,-8.41,-8.33,0,*5C
1520287563.27,10149,10.25,71970.3,-7.29,-8.29,-8.37,0,*5E
1520287564.48,10150,10.25,71964.0,-7.31,-8.33,-8.41,0,*55
1520287565.7,10151,10.25,71964.5,-7.31,-8.33,-8.45,0,*50
1520287566.94,10152,10.25,71970.0,-7.29,-8.51,-8.51,0,*5B
1520287568.13,10153,10.25,71972.0,-7.29,-8.41,-8.55,0,*5F
1520287569.35,10154,10.25,71968.0,-7.31,-8.55,-8.67,0,*55
1520287570.57,10155,10.25,71968.8,-7.31,-8.55,-8.59,0,*59
1520287571.79,10156,10.25,71972.3,-7.31,-8.55,-8.59,0,*5A
1520287573.0,10157,10.31,71978.3,-7.31,-8.59,-8.67,0,*5A
1520287574.21,10158,10.25,71966.3,-7.31,-8.59,-8.67,0,*55
1520287575.43,10159,10.25,71968.8,-7.31,-8.55,-8.59,0,*55
1520287576.65,10160,10.25,71976.5,-7.31,-8.55,-8.59,0,*5F
1520287577.87,10161,10.25,71966.3,-7.31,-8.55,-8.67,0,*53
1520287579.08,10162,10.25,71970.3,-7.31,-8.55,-8.67,0,*50
1520287580.3,10163,10.25,71968.8,-7.31,-8.55,-8.59,0,*5C
1520287581.52,10164,10.31,71964.0,-7.31,-8.55,-8.59,0,*5B
1520287582.74,10165,10.25,71968.5,-7.31,-8.55,-8.55,0,*56
1520287583.93,10166,10.25,71966.5,-7.33,-8.45,-8.67,0,*57
1520287585.12,10167,10.31,71972.3,-7.33,-8.67,-8.67,0,*56
1520287586.32,10168,10.25,71968.8,-7.33,-8.45,-8.59,0,*54
1520287587.52,10169,10.25,71964.0,-7.33,-8.41,-8.45,0,*5C
1520287588.77,10170,10.25,71966.5,-7.35,-8.45,-8.51,0,*53
1520287589.97,10171,10.25,71966.0,-7.33,-8.41,-8.45,0,*55
1520287591.16,10172,10.25,71970.3,-7.33,-8.33,-8.55,0,*52
1520287592.35,10173,10.31,71964.8,-7.33,-8.45,-8.55,0,*52
1520287593.57,10174,10.25,71970.0,-7.31,-8.41,-8.55,0,*53
1520287594.79,10175,10.25,71970.5,-7.31,-8.45,-8.55,0,*56
1520287596.0,10176,10.25,71970.0,-7.31,-8.41,-8.55,0,*51
1520287597.22,10177,10.25,71972.8,-7.31,-8.41,-8.55,0,*50
1520287598.44,10178,10.31,71972.5,-7.31,-8.45,-8.55,0,*5B
1520287599.65,10179,10.25,71972.0,-7.31,-8.55,-8.55,0,*5B
1520287600.87,10180,10.25,71976.0,-7.31,-8.41,-8.55,0,*58
1520287602.08,10181,10.25,71976.0,-7.31,-8.41,-8.55,0,*59
1520287603.3,10182,10.31,71978.3,-7.31,-8.41,-8.55,0,*5A
1520287604.5,10183,10.31,71976.3,-7.33,-8.41,-8.45,0,*58
1520287605.72,10184,10.31,71978.3,-7.31,-8.45,-8.55,0,*58
1520287606.94,10185,10.25,71974.3,-7.31,-8.45,-8.45,0,*58
1520287608.16,10186,10.25,71972.8,-7.31,-8.45,-8.55,0,*5A
1520287609.36,10187,10.25,71970.5,-7.33,-8.45,-8.59,0,*55
1520287610.55,10188,10.25,71972.5,-7.33,-8.55,-8.59,0,*5B
1520287611.74,10189,10.25,71974.8,-7.33,-8.45,-8.67,0,*56
1520287612.96,10190,10.31,71972.3,-7.31,-8.55,-8.59,0,*50
1520287614.18,10191,10.25,71966.8,-7.31,-8.59,-8.59,0,*5D
1520287615.4,10192,10.31,71968.3,-7.31,-8.55,-8.59,0,*52
1520287616.59,10193,10.25,71960.5,-7.33,-8.59,-8.59,0,*5D
1520287617.79,10194,10.25,71970.5,-7.33,-8.45,-8.59,0,*57
1520287618.98,10195,10.31,71974.8,-7.33,-8.55,-8.55,0,*5B
1520287620.18,10196,10.25,71976.5,-7.33,-8.59,-8.59,0,*58
1520287621.37,10197,10.25,71976.8,-7.33,-8.67,-8.67,0,*59
1520287622.56,10198,10.31,71978.5,-7.33,-8.59,-8.67,0,*5B
1520287623.79,10199,10.25,71978.8,-7.35,-8.71,-8.71,0,*51
1520287624.98,10200,10.31,71982.3,-7.33,-8.59,-8.67,0,*59
1520287626.17,10201,10.31,71980.8,-7.33,-8.59,-8.59,0,*55
1520287627.36,10202,10.31,71984.3,-7.33,-8.59,-8.67,0,*5B
1520287628.55,10203,10.25,71978.3,-7.33,-8.59,-8.67,0,*5A
1520287629.74,10204,10.25,71982.5,-7.33,-8.59,-8.59,0,*50
1520287630.94,10205,10.25,71978.5,-7.33,-8.45,-8.59,0,*5C
1520287632.16,10206,10.25,71980.0,-7.31,-8.45,-8.55,0,*51
1520287633.35,10207,10.25,71978.5,-7.33,-8.55,-8.59,0,*5F
1520287634.55,10208,10.25,71982.0,-7.33,-8.55,-8.67,0,*5D
1520287635.74,10209,10.25,71976.8,-7.33,-8.59,-8.59,0,*5D
1520287636.94,10210,10.31,71978.0,-7.33,-8.55,-8.55,0,*55
1520287638.13,10211,10.25,71974.8,-7.33,-8.55,-8.59,0,*58
1520287639.32,10212,10.31,71978.3,-7.33,-8.59,-8.67,0,*5A
1520287640.52,10213,10.31,71976.8,-7.33,-8.59,-8.59,0,*56
1520287641.71,10214,10.25,71978.3,-7.33,-8.55,-8.59,0,*5D
1520287642.91,10215,10.25,71976.5,-7.33,-8.55,-8.67,0,*51
1520287644.1,10216,10.31,71978.8,-7.33,-8.55,-8.59,0,*5F
1520287645.3,10217,10.25,71978.8,-7.33,-8.67,-8.71,0,*55
1520287646.52,10218,10.25,71972.3,-7.35,-8.63,-8.71,0,*58
1520287647.75,10219,10.25,71972.5,-7.35,-8.63,-8.71,0,*59
1520287648.94,10220,10.25,71970.5,-7.33,-8.45,-8.55,0,*57
1520287650.14,10221,10.25,71972.3,-7.33,-8.55,-8.45,0,*56
1520287651.33,10222,10.31,71972.3,-7.33,-8.67,-8.67,0,*54
1520287652.53,10223,10.25,71968.8,-7.33,-8.67,-8.59,0,*58
1520287653.72,10224,10.25,71968.8,-7.33,-8.59,-8.59,0,*52
1520287654.91,10225,10.25,71972.3,-7.33,-8.45,-8.67,0,*53
1520287656.1,10226,10.25,71972.0,-7.33,-8.55,-8.67,0,*51
1520287657.3,10227,10.25,71974.0,-7.33,-8.67,-8.59,0,*5C
1520287658.53,10228,10.31,71976.5,-7.35,-8.71,-8.71,0,*58
1520287659.72,10229,10.25,71976.0,-7.33,-8.59,-8.71,0,*55
1520287660.91,10230,10.25,71976.5,-7.33,-8.59,-8.59,0,*57
1520287662.11,10231,10.25,71976.5,-7.33,-8.67,-8.71,0,*51
1520287663.33,10232,10.25,71978.5,-7.35,-8.59,-8.71,0,*59
1520287664.53,10233,10.31,71978.8,-7.33,-8.59,-8.71,0,*5E
1520287665.72,10234,10.25,71972.5,-7.33,-8.59,-8.67,0,*5E
1520287666.94,10235,10.25,71968.3,-7.35,-8.71,-8.75,0,*50
1520287668.17,10236,10.25,71966.3,-7.33,-8.71,-8.81,0,*5E
1520287669.41,10237,10.25,71960.8,-7.33,-8.81,-8.81,0,*50
1520287670.64,10238,10.25,71960.0,-7.35,-8.71,-8.85,0,*52
1520287671.87,10239,10.31,71964.8,-7.35,-8.75,-8.85,0,*57
1520287673.08,10240,10.25,71958.0,-7.33,-8.71,-8.71,0,*50
1520287674.28,10241,10.25,71958.5,-7.33,-8.71,-8.71,0,*51
1520287675.48,10242,10.31,71966.0,-7.33,-8.71,-8.71,0,*52
1520287676.71,10243,10.25,71960.8,-7.35,-8.71,-8.71,0,*55
1520287677.93,10244,10.25,71954.8,-7.35,-8.63,-8.71,0,*51
1520287679.12,10245,10.25,71956.3,-7.33,-8.59,-8.59,0,*55
1520287680.32,10246,10.31,71960.0,-7.33,-8.59,-8.63,0,*5F
1520287681.51,10247,10.31,71962.8,-7.33,-8.55,-8.59,0,*5B
1520287682.71,10248,10.31,71966.0,-7.33,-8.45,-8.55,0,*59
1520287683.9,10249,10.25,71962.5,-7.33,-8.59,-8.59,0,*59
1520287685.12,10250,10.25,71962.8,-7.35,-8.59,-8.59,0,*57
1520287686.32,10251,10.31,71964.5,-7.33,-8.45,-8.55,0,*51
1520287687.54,10252,10.25,71956.0,-7.35,-8.63,-8.63,0,*55
1520287688.76,10253,10.31,71962.3,-7.35,-8.63,-8.63,0,*54
1520287689.96,10254,10.25,71960.3,-7.33,-8.59,-8.59,0,*55
1520287691.21,10255,10.31,71970.8,-7.35,-8.51,-8.63,0,*53
1520287692.4,10256,10.25,71968.3,-7.33,-8.59,-8.67,0,*5A
1520287693.62,10257,10.25,71962.5,-7.35,-8.63,-8.63,0,*50
1520287694.81,10258,10.31,71964.5,-7.33,-8.67,-8.67,0,*59
1520287696.03,10259,10.31,71968.8,-7.35,-8.63,-8.71,0,*5D
1520287697.23,10260,10.31,71970.3,-7.33,-8.67,-8.59,0,*5F
1520287698.42,10261,10.25,71966.0,-7.33,-8.67,-8.59,0,*5E
1520287699.61,10262,10.25,71972.3,-7.33,-8.59,-8.67,0,*5D
1520287700.8,10263,10.25,71974.0,-7.33,-8.67,-8.67,0,*51
1520287702.03,10264,10.31,71978.5,-7.35,-8.71,-8.71,0,*50
1520287703.25,10265,10.25,71968.3,-7.35,-8.63,-8.71,0,*52